Location: Forst
(46.9333°N, 15.4333°E)
Time: 05:29:30
(UTC+00:00)

Cosmos 158 Rocket - Pass Details

Date: 01 December 2020
Orbit: 698 x 793 km, 74.0° (Epoch: 18 January)

Event Time Altitude Azimuth Distance (km) Brightness Sun altitude
Rises 17:13:05 0° 189° (S) 3,124 7.4 -20.1°
Reaches altitude 10° 17:15:27 10° 185° (S) 2,195 6.6 -20.5°
Maximum altitude 17:20:17 58° 107° (ESE) 822 3.8 -21.3°
Enters shadow 17:21:03 52° 69° (ENE) 880 3.9 -21.4°
